Ann Arbor, MI

4:50 PM EDT on July 25, 2016 (GMT -0400)
Walker Briar Works | | Change Station

Elev 961 ft 42.26 °N, 83.77 °W | Updated 1 second ago

Haze
Haze
89.8 °F
Feels Like 91 °F
N
0.0
Wind Variable Wind from WSW
Gusts 7.6 mph

Today
High -- | Low -- °F
--% Chance of Precip.
Yesterday
High -- | Low -- °F
Precip. -- in
Pressure 29.93 in
Visibility 0.2 miles
Clouds Clear
Heat Index 91 °F
Dew Point 63 °F
Humidity 41%
Rainfall 0.00 in
Snow Depth Not available.
6:21 AM 9:01 PM
Waning Gibbous, 62% visible
SPECI KARB 252038Z 26010KT 1/4SM HZ CLR 32/17 A2993 RMK AO2 T03220172 $
Pressure 29.93 in
Visibility 0.2 miles
Clouds Clear
Heat Index 91 °F
Dew Point 63 °F
Humidity 41%
Rainfall 0.00 in
Snow Depth Not available.
6:21 AM 9:01 PM
Waning Gibbous, 62% visible
SPECI KARB 252038Z 26010KT 1/4SM HZ CLR 32/17 A2993 RMK AO2 T03220172 $
Record highs are possible for parts of the Northeast Monday and Tuesday, as parts of the central U.S. take a little breather from the worst of summer's dog day heat.

Expansive high pressure in the upper atmosphere will focus on parts of the East and West this week, sending heat indices well into the triple digits from the Mid-Atlantic states into the South.

10-Day Weather Forecast

Almanac

Astronomy

Jul. 25, 2016 Rise Set
Actual Time
Civil Twilight
Nautical Twilight
Astronomical Twilight
Moon
Length of Visible Light
Length of Day
Tomorrow will be .
, % of the Moon is Illuminated

Today's Extremes

State Highs State Lows

Community

WunderPhotos

Upload Photos

1,927,417 photos uploaded!

WunderBlog® & News

Nearby

Air Quality

  Air Quality AQ Index Pollutant
Not available.

Snow Depth

Station Depth Elevation

Earthquake Activity

City Distance Mag. Time & Date
Minimum magnitude displayed is 2.5.

Coastal Water Temperatures

Place Temperature

Stations

Nearby Weather Stations

Station Location Temp. Windchill Dew Point Humidity Wind Precip. Elev Updated Type
                   

Watches & Warnings

There are currently no watches in effect.